SCP
0 0 0 0 0 0 0 0 0 0 0 0 0 0 0 0 0 0 0 0 0 0 0 0 0 0 0 0 0 0 0 0 0 0 0 0 0 0 0 0 -0 -0 0
0 0 0 0 0 0 0 0 0 0 0 0 0 0 0 0 0 0 0 0 0 0 0 0 0 0 0 0 0 0 0 0 0 0 0 0 0 -0 0 -0 -0 -0 0
0 0 0 0 0 0 0 0 0 0 0 0 0 0 0 0 0 0 0 0 0 0 0 0 0 0 0 0 0 0 0 0 0 0 0 0 0 -0 0 -0 -0 -0 -0
0 0 0 0 0 0 0 0 0 0 0 0 0 0 0 0 0 0 0 0 0 0 0 0 0 0 0 0 0 0 0 0 0 0 0 0 -0 0 0 0 0 -0 0
0 0 0 0 0 0 0 0 0 0 0 0 0 0 0 0 0 0 0 0 0 0 0 0 0 0 0 0 0 0 0 0 0 0 0 0 -0 0 0 0 0 -0 0
0 0 0 0 0 0 0 0 0 0 0 0 0 0 0 0 0 0 0 0 0 0 0 0 0 0 0 0 0 0 0 0 0 0 0 0 -0 -0 0 0 0 -0 0
0 0 0 0 0 0 0 0 0 0 0 0 0 0 0 0 0 0 0 0 0 0 0 0 0 0 0 0 0 0 0 0 0 0 0 0 -0 0 -0 0 0 0 0
0 0 0 0 0 0 0 0 0 0 0 0 0 0 0 0 0 0 0 0 0 0 0 0 0 0 0 0 0 0 0 0 0 0 0 0 -0 0 -0 0 0 0 0
0 0 0 0 0 0 0 0 0 0 0 0 0 0 0 0 0 0 0 0 0 0 0 0 0 0 0 0 0 0 0 0 0 0 0 0 -0 0 -0 0 0 0 0
0 0 0 0 0 0 0 0 0 0 0 0 0 0 0 0 0 0 0 0 0 0 0 0 0 0 0 0 0 0 0 0 0 0 0 0 0 0 0 0 0 0 0
0 0 0 0 0 0 0 0 0 0 0 0 0 0 0 0 0 0 0 0 0 0 0 0 0 0 0 0 0 0 0 0 0 0 0 0 0 0 -0 0 0 0 0
0 0 0 0 0 0 0 0 0 0 0 0 0 0 0 0 0 0 0 0 0 0 0 0 0 0 0 0 0 0 0 0 0 0 0 0 0 -0 -0 0 0 0 0
0 0 0 0 0 0 0 0 0 0 0 0 0 0 0 0 0 0 0 0 0 0 0 0 0 0 0 0 0 0 0 0 0 0 0 0 -0 -0 -0 0 0 0 0
0 0 0 0 0 0 0 0 0 0 0 0 0 0 0 0 0 0 0 0 0 0 0 0 0 0 0 0 0 0 0 0 0 0 0 0 -0 -0 -0 -0 0 0 0
0 0 0 0 0 0 0 0 0 0 0 0 0 0 0 0 0 0 0 0 0 0 0 0 0 0 0 0 0 0 0 0 0 0 0 0 -0 -0 -0 0 0 0 0
0 0 0 0 0 0 0 0 0 0 0 0 0 0 0 0 0 0 0 0 0 0 0 0 0 0 0 0 0 0 0 0 0 0 0 0 -0 -0 -0 -0 0 0 0
0 0 0 0 0 0 0 0 0 0 0 0 0 0 0 0 0 0 0 0 0 0 0 0 0 0 0 0 0 0 0 0 0 0 0 0 -0 -0 0 -0 -0 -0 0
0 0 0 0 0 0 0 0 0 0 0 0 0 0 0 0 0 0 0 0 0 0 0 0 0 0 0 0 0 0 0 0 0 0 0 0 -0 -0 -0 -0 -0 0 0
0 0 0 0 0 0 0 0 0 0 0 0 0 0 0 0 0 0 0 0 0 0 0 0 0 0 0 0 0 0 0 0 0 0 0 0 0 -0 -0 -0 -0 -0 0
0 0 0 0 0 0 0 0 0 0 0 0 0 0 0 0 0 0 0 0 0 0 0 0 0 0 0 0 0 0 0 0 0 0 0 0 -0 -0 -0 -0 -0 -0 0
0 0 0 0 0 0 0 0 0 0 0 0 0 0 0 0 0 0 0 0 0 0 0 0 0 0 0 0 0 0 0 0 0 0 0 0 0 0 -0 -0 -0 -0 0
0 0 0 0 0 0 0 0 0 0 0 0 0 0 0 0 0 0 0 0 0 0 0 0 0 0 0 0 0 0 0 0 0 0 0 0 0 0 -0 -0 -0 -0 -0
0 0 0 0 0 0 0 0 0 0 0 0 0 0 0 0 0 0 0 0 0 0 0 0 0 0 0 0 0 0 0 0 0 0 0 0 0 0 0 -0 -0 0 -0
0 0 0 0 0 0 0 0 0 0 0 0 0 0 0 0 0 0 0 0 0 0 0 0 0 0 0 0 0 0 0 0 0 0 0 0 0 0 0 0 0 0 0
0 0 0 0 0 0 0 0 0 0 0 0 0 0 0 0 0 0 0 0 0 0 0 0 0 0 0 0 0 0 0 0 0 0 0 0 0 0 0 0 0 0 0
0 0 0 0 0 0 0 0 0 0 0 0 0 0 0 0 0 0 0 0 0 0 0 0 0 0 0 0 0 0 0 0 0 0 0 0 0 0 0 0 0 0 0
Wind_Speed_500mb
58 59 66 64 62 55 49 39 29 22 17 15 15 17 20 23 28 35 44 51 56 58 61 63 64 63 59 57 59 63 66 64 71 77 78 48 44 51 50 63 72 64 68
60 61 67 71 69 61 54 48 38 29 23 17 14 15 17 19 25 33 42 48 53 57 58 59 60 59 57 56 57 61 65 62 61 63 63 52 52 90 45 64 77 67 70
65 65 71 77 73 69 62 51 43 35 27 20 16 16 16 19 24 30 38 46 51 51 52 55 57 55 54 53 53 54 56 60 55 53 50 40 39 91 75 74 82 72 66
57 62 71 82 82 74 65 56 49 39 32 24 18 16 15 17 22 29 38 43 46 49 51 52 54 52 50 49 49 49 50 53 54 59 51 43 49 56 61 82 86 71 72
53 62 73 82 80 77 70 64 55 45 36 27 20 17 16 16 20 27 34 39 42 45 47 49 50 49 47 45 44 43 45 47 49 50 55 58 50 52 55 66 95 71 71
35 44 55 67 78 78 74 68 60 50 40 31 24 19 16 15 18 24 30 35 39 42 43 45 46 46 47 46 44 41 40 43 44 45 47 52 56 66 64 68 71 78 69
22 37 51 66 77 84 80 74 65 55 45 36 28 21 17 14 16 21 27 31 36 38 40 44 46 48 49 48 44 39 36 38 42 42 46 50 58 59 55 54 71 74 55
26 35 44 56 72 82 83 78 70 61 49 40 31 23 19 15 14 19 23 28 33 36 37 40 43 45 47 47 42 36 32 34 39 40 43 50 56 60 56 60 69 69 42
28 35 41 51 62 78 86 81 73 63 53 44 35 26 21 16 13 16 20 25 29 32 33 36 39 42 46 45 40 35 30 30 34 40 44 47 55 60 57 57 54 46 35
24 33 39 46 56 68 81 81 75 64 55 47 38 29 23 17 14 13 16 21 25 28 28 31 35 39 44 43 39 34 28 27 31 38 44 48 56 59 59 60 56 45 39
33 34 38 43 51 62 78 84 80 72 62 52 43 33 26 20 16 11 12 16 21 25 26 28 33 38 44 42 38 33 25 25 27 34 42 47 54 59 62 64 55 48 42
32 36 40 43 52 63 74 87 86 78 68 57 47 37 30 24 17 11 9 13 18 21 23 26 30 35 42 42 39 36 29 23 26 31 37 45 52 57 60 63 58 51 40
30 39 44 49 55 62 72 86 90 83 73 62 52 42 34 27 19 11 5 9 14 18 20 23 28 34 41 42 38 35 30 22 22 28 33 42 50 54 60 60 54 49 42
32 39 45 51 58 64 71 84 91 87 77 66 56 46 37 30 21 13 5 4 10 15 18 22 26 32 37 38 37 34 28 22 19 21 27 36 43 48 56 53 53 48 42
45 47 46 52 62 68 72 81 89 90 81 71 60 49 41 33 23 15 8 1 6 11 16 21 26 29 34 39 38 33 28 22 16 16 21 28 34 35 43 48 54 48 43
64 69 67 67 69 72 74 79 88 94 86 74 63 53 44 37 27 19 12 5 2 8 14 19 23 28 33 38 35 33 27 21 17 13 18 25 33 33 39 44 47 45 42
63 65 69 71 74 72 74 77 84 92 89 79 68 58 48 39 31 24 17 9 2 5 12 18 23 28 34 37 34 31 27 21 16 15 17 23 29 38 36 39 43 43 38
73 63 60 63 67 68 70 72 78 90 92 83 73 63 53 44 36 28 21 13 6 3 9 16 23 29 34 35 32 30 26 21 18 17 19 23 31 35 35 36 40 43 41
32 28 28 37 48 59 64 70 77 89 95 89 79 69 58 49 41 33 25 17 9 2 6 14 22 27 31 33 32 29 24 21 19 17 19 24 29 32 34 33 36 37 39
18 13 12 21 35 48 57 66 75 88 98 93 83 70 59 51 43 36 29 22 14 6 3 12 19 26 29 31 31 27 23 21 20 19 20 21 26 30 34 35 35 38 41
15 6 5 11 20 33 46 62 73 87 95 95 84 72 63 55 48 41 33 25 18 10 3 9 17 22 27 30 28 24 22 21 19 18 19 23 28 31 33 34 36 36 34
12 9 8 12 18 28 42 56 68 79 97 96 87 77 69 63 54 45 37 29 20 13 6 7 15 19 24 27 26 22 20 19 18 19 21 26 29 33 35 34 33 29 28
8 12 21 22 26 31 39 51 62 77 94 97 90 81 74 67 58 51 42 34 25 16 8 7 10 15 20 24 25 19 17 17 18 19 23 26 28 30 33 35 32 30 32
28 27 29 33 37 38 41 48 59 67 90 100 94 86 79 72 63 55 46 37 29 21 13 7 7 11 16 22 23 18 15 16 16 18 20 24 28 31 31 33 38 41 39
36 34 36 35 40 41 45 52 53 66 93 104 98 90 83 76 69 59 48 40 32 25 16 11 7 7 12 20 22 20 14 12 14 18 16 13 17 26 35 39 41 45 41
24 34 39 41 44 45 51 50 56 70 96 109 103 98 90 83 74 65 57 48 35 27 22 16 10 5 10 16 19 21 20 12 12 12 11 15 21 26 34 41 42 49 48
Wind_Direction_500mb
221 218 216 214 214 215 217 220 224 232 250 276 298 314 317 327 332 337 347 350 352 352 353 353 350 349 353 354 353 351 356 357 356 352 353 340 348 342 353 356 359 4 4
217 214 213 214 216 218 217 218 221 226 237 256 282 295 304 317 329 341 346 349 352 354 352 352 351 350 352 353 353 355 357 360 0 354 348 347 349 347 353 354 1 6 9
216 211 211 214 216 216 217 219 221 225 233 247 267 285 302 318 331 338 344 352 354 350 350 355 352 352 354 353 354 354 359 357 3 8 1 345 341 335 343 347 359 4 9
223 217 213 214 215 216 216 217 222 226 231 241 259 279 296 309 323 339 348 352 351 350 354 357 354 352 355 353 353 354 356 359 357 4 4 354 344 338 329 344 352 10 10
220 216 215 217 217 215 215 217 219 223 228 237 250 267 281 300 322 339 348 350 352 352 355 357 354 355 356 356 352 353 356 360 359 356 354 359 355 350 343 332 344 12 14
217 217 217 214 214 214 213 216 218 221 225 232 244 259 273 294 318 336 347 350 353 353 356 359 357 359 357 358 354 353 356 359 359 1 357 356 355 353 349 341 343 341 3
211 209 209 208 208 211 212 215 217 219 222 228 237 251 263 279 307 332 346 351 352 354 356 2 1 2 1 360 355 355 354 358 358 0 356 3 8 8 358 350 344 345 358
228 213 213 212 212 212 213 215 216 217 219 225 232 243 252 267 300 326 343 350 353 353 358 6 3 2 3 2 2 356 354 1 359 2 359 3 9 12 15 4 355 349 356
209 210 211 214 215 213 215 215 215 216 218 223 228 236 245 254 288 319 342 349 354 353 359 8 4 4 6 3 3 3 0 7 2 4 4 3 8 12 19 18 7 357 349
214 209 211 212 213 214 214 215 217 218 219 221 225 230 237 244 272 311 337 349 353 351 1 12 7 6 7 5 7 9 9 9 7 7 8 8 10 12 18 22 14 8 359
224 218 214 213 213 213 214 214 214 214 216 218 222 225 231 232 257 293 328 347 353 349 2 14 11 9 9 11 10 8 9 9 7 10 10 9 11 13 17 21 12 15 12
220 219 220 216 214 213 212 213 214 214 215 217 218 221 225 227 242 270 318 343 355 349 3 16 12 11 10 11 11 6 6 6 3 8 12 9 13 14 17 20 10 20 23
225 219 218 219 219 217 214 213 213 213 213 214 215 217 220 222 231 251 296 341 356 350 5 20 12 12 10 12 9 360 2 5 3 4 13 12 12 13 18 17 12 20 27
235 230 227 228 226 222 217 215 213 212 212 212 214 214 217 217 223 236 252 338 358 355 6 21 15 14 9 11 9 3 5 10 2 6 12 16 15 13 19 14 15 19 27
241 236 235 243 233 226 221 218 214 212 211 212 212 212 213 212 215 223 222 263 4 2 9 24 17 14 9 12 7 8 15 16 9 7 12 17 20 22 24 19 18 21 26
260 260 256 250 241 233 226 220 214 211 210 210 211 210 210 208 208 212 209 197 26 5 17 28 19 15 8 11 10 6 18 25 21 20 20 20 19 26 24 25 23 22 25
273 264 257 253 246 237 232 224 217 210 208 208 208 209 207 205 205 205 202 189 159 15 20 31 24 18 10 11 13 11 15 26 34 35 29 27 24 26 23 27 26 24 28
282 275 264 256 247 239 232 225 219 211 207 206 207 206 205 201 203 202 198 186 176 51 21 32 28 20 12 12 19 18 23 39 43 42 31 22 31 26 22 21 24 23 25
288 280 257 252 249 238 229 222 216 209 207 206 206 205 202 200 201 200 196 188 175 134 28 33 33 24 12 16 23 28 36 51 50 40 30 22 29 26 21 20 23 23 25
341 314 249 236 234 228 224 219 214 208 206 206 206 204 201 198 199 198 195 190 176 163 47 40 35 28 15 20 27 41 52 56 53 43 32 27 31 26 21 20 23 23 18
340 318 228 219 220 223 219 216 213 208 205 204 203 201 198 196 196 198 194 188 182 172 128 50 40 31 21 25 31 47 56 59 56 48 43 37 30 22 19 17 21 20 14
7 322 260 237 229 223 218 216 214 208 205 200 200 198 196 194 196 195 196 189 184 177 159 72 47 33 26 30 34 47 54 57 50 47 41 36 29 24 22 23 22 18 15
263 275 248 241 235 228 223 219 212 210 203 198 198 197 195 195 195 196 194 191 188 182 174 96 55 40 34 34 35 48 53 53 53 48 44 39 32 28 26 28 27 27 26
264 254 242 242 235 224 223 219 217 209 201 198 196 195 196 194 195 194 193 192 192 182 183 143 85 49 40 41 41 43 57 57 58 58 50 45 35 35 38 36 35 32 30
261 259 251 242 238 225 221 221 212 205 197 198 196 196 196 196 195 195 195 191 188 181 183 168 126 72 51 47 41 45 66 75 72 58 49 52 56 49 47 46 43 40 36
265 263 252 241 232 222 225 219 210 200 197 196 196 197 196 195 196 194 189 189 191 189 187 181 157 107 64 58 50 53 56 71 83 68 70 61 55 53 49 45 45 40 34
Wind_Speed_850mb
58 59 66 64 62 55 49 39 29 22 17 15 15 17 20 23 28 35 44 51 56 58 61 63 64 63 59 57 59 63 66 64 71 77 78 48 44 51 50 63 72 64 68
60 61 67 71 69 61 54 48 38 29 23 17 14 15 17 19 25 33 42 48 53 57 58 59 60 59 57 56 57 61 65 62 61 63 63 52 52 90 45 64 77 67 70
65 65 71 77 73 69 62 51 43 35 27 20 16 16 16 19 24 30 38 46 51 51 52 55 57 55 54 53 53 54 56 60 55 53 50 40 39 91 75 74 82 72 66
57 62 71 82 82 74 65 56 49 39 32 24 18 16 15 17 22 29 38 43 46 49 51 52 54 52 50 49 49 49 50 53 54 59 51 43 49 56 61 82 86 71 72
53 62 73 82 80 77 70 64 55 45 36 27 20 17 16 16 20 27 34 39 42 45 47 49 50 49 47 45 44 43 45 47 49 50 55 58 50 52 55 66 95 71 71
35 44 55 67 78 78 74 68 60 50 40 31 24 19 16 15 18 24 30 35 39 42 43 45 46 46 47 46 44 41 40 43 44 45 47 52 56 66 64 68 71 78 69
22 37 51 66 77 84 80 74 65 55 45 36 28 21 17 14 16 21 27 31 36 38 40 44 46 48 49 48 44 39 36 38 42 42 46 50 58 59 55 54 71 74 55
26 35 44 56 72 82 83 78 70 61 49 40 31 23 19 15 14 19 23 28 33 36 37 40 43 45 47 47 42 36 32 34 39 40 43 50 56 60 56 60 69 69 42
28 35 41 51 62 78 86 81 73 63 53 44 35 26 21 16 13 16 20 25 29 32 33 36 39 42 46 45 40 35 30 30 34 40 44 47 55 60 57 57 54 46 35
24 33 39 46 56 68 81 81 75 64 55 47 38 29 23 17 14 13 16 21 25 28 28 31 35 39 44 43 39 34 28 27 31 38 44 48 56 59 59 60 56 45 39
33 34 38 43 51 62 78 84 80 72 62 52 43 33 26 20 16 11 12 16 21 25 26 28 33 38 44 42 38 33 25 25 27 34 42 47 54 59 62 64 55 48 42
32 36 40 43 52 63 74 87 86 78 68 57 47 37 30 24 17 11 9 13 18 21 23 26 30 35 42 42 39 36 29 23 26 31 37 45 52 57 60 63 58 51 40
30 39 44 49 55 62 72 86 90 83 73 62 52 42 34 27 19 11 5 9 14 18 20 23 28 34 41 42 38 35 30 22 22 28 33 42 50 54 60 60 54 49 42
32 39 45 51 58 64 71 84 91 87 77 66 56 46 37 30 21 13 5 4 10 15 18 22 26 32 37 38 37 34 28 22 19 21 27 36 43 48 56 53 53 48 42
45 47 46 52 62 68 72 81 89 90 81 71 60 49 41 33 23 15 8 1 6 11 16 21 26 29 34 39 38 33 28 22 16 16 21 28 34 35 43 48 54 48 43
64 69 67 67 69 72 74 79 88 94 86 74 63 53 44 37 27 19 12 5 2 8 14 19 23 28 33 38 35 33 27 21 17 13 18 25 33 33 39 44 47 45 42
63 65 69 71 74 72 74 77 84 92 89 79 68 58 48 39 31 24 17 9 2 5 12 18 23 28 34 37 34 31 27 21 16 15 17 23 29 38 36 39 43 43 38
73 63 60 63 67 68 70 72 78 90 92 83 73 63 53 44 36 28 21 13 6 3 9 16 23 29 34 35 32 30 26 21 18 17 19 23 31 35 35 36 40 43 41
32 28 28 37 48 59 64 70 77 89 95 89 79 69 58 49 41 33 25 17 9 2 6 14 22 27 31 33 32 29 24 21 19 17 19 24 29 32 34 33 36 37 39
18 13 12 21 35 48 57 66 75 88 98 93 83 70 59 51 43 36 29 22 14 6 3 12 19 26 29 31 31 27 23 21 20 19 20 21 26 30 34 35 35 38 41
15 6 5 11 20 33 46 62 73 87 95 95 84 72 63 55 48 41 33 25 18 10 3 9 17 22 27 30 28 24 22 21 19 18 19 23 28 31 33 34 36 36 34
12 9 8 12 18 28 42 56 68 79 97 96 87 77 69 63 54 45 37 29 20 13 6 7 15 19 24 27 26 22 20 19 18 19 21 26 29 33 35 34 33 29 28
8 12 21 22 26 31 39 51 62 77 94 97 90 81 74 67 58 51 42 34 25 16 8 7 10 15 20 24 25 19 17 17 18 19 23 26 28 30 33 35 32 30 32
28 27 29 33 37 38 41 48 59 67 90 100 94 86 79 72 63 55 46 37 29 21 13 7 7 11 16 22 23 18 15 16 16 18 20 24 28 31 31 33 38 41 39
36 34 36 35 40 41 45 52 53 66 93 104 98 90 83 76 69 59 48 40 32 25 16 11 7 7 12 20 22 20 14 12 14 18 16 13 17 26 35 39 41 45 41
24 34 39 41 44 45 51 50 56 70 96 109 103 98 90 83 74 65 57 48 35 27 22 16 10 5 10 16 19 21 20 12 12 12 11 15 21 26 34 41 42 49 48
Wind_Direction_850mb
221 218 216 214 214 215 217 220 224 232 250 276 298 314 317 327 332 337 347 350 352 352 353 353 350 349 353 354 353 351 356 357 356 352 353 340 348 342 353 356 359 4 4
217 214 213 214 216 218 217 218 221 226 237 256 282 295 304 317 329 341 346 349 352 354 352 352 351 350 352 353 353 355 357 360 0 354 348 347 349 347 353 354 1 6 9
216 211 211 214 216 216 217 219 221 225 233 247 267 285 302 318 331 338 344 352 354 350 350 355 352 352 354 353 354 354 359 357 3 8 1 345 341 335 343 347 359 4 9
223 217 213 214 215 216 216 217 222 226 231 241 259 279 296 309 323 339 348 352 351 350 354 357 354 352 355 353 353 354 356 359 357 4 4 354 344 338 329 344 352 10 10
220 216 215 217 217 215 215 217 219 223 228 237 250 267 281 300 322 339 348 350 352 352 355 357 354 355 356 356 352 353 356 360 359 356 354 359 355 350 343 332 344 12 14
217 217 217 214 214 214 213 216 218 221 225 232 244 259 273 294 318 336 347 350 353 353 356 359 357 359 357 358 354 353 356 359 359 1 357 356 355 353 349 341 343 341 3
211 209 209 208 208 211 212 215 217 219 222 228 237 251 263 279 307 332 346 351 352 354 356 2 1 2 1 360 355 355 354 358 358 0 356 3 8 8 358 350 344 345 358
228 213 213 212 212 212 213 215 216 217 219 225 232 243 252 267 300 326 343 350 353 353 358 6 3 2 3 2 2 356 354 1 359 2 359 3 9 12 15 4 355 349 356
209 210 211 214 215 213 215 215 215 216 218 223 228 236 245 254 288 319 342 349 354 353 359 8 4 4 6 3 3 3 0 7 2 4 4 3 8 12 19 18 7 357 349
214 209 211 212 213 214 214 215 217 218 219 221 225 230 237 244 272 311 337 349 353 351 1 12 7 6 7 5 7 9 9 9 7 7 8 8 10 12 18 22 14 8 359
224 218 214 213 213 213 214 214 214 214 216 218 222 225 231 232 257 293 328 347 353 349 2 14 11 9 9 11 10 8 9 9 7 10 10 9 11 13 17 21 12 15 12
220 219 220 216 214 213 212 213 214 214 215 217 218 221 225 227 242 270 318 343 355 349 3 16 12 11 10 11 11 6 6 6 3 8 12 9 13 14 17 20 10 20 23
225 219 218 219 219 217 214 213 213 213 213 214 215 217 220 222 231 251 296 341 356 350 5 20 12 12 10 12 9 360 2 5 3 4 13 12 12 13 18 17 12 20 27
235 230 227 228 226 222 217 215 213 212 212 212 214 214 217 217 223 236 252 338 358 355 6 21 15 14 9 11 9 3 5 10 2 6 12 16 15 13 19 14 15 19 27
241 236 235 243 233 226 221 218 214 212 211 212 212 212 213 212 215 223 222 263 4 2 9 24 17 14 9 12 7 8 15 16 9 7 12 17 20 22 24 19 18 21 26
260 260 256 250 241 233 226 220 214 211 210 210 211 210 210 208 208 212 209 197 26 5 17 28 19 15 8 11 10 6 18 25 21 20 20 20 19 26 24 25 23 22 25
273 264 257 253 246 237 232 224 217 210 208 208 208 209 207 205 205 205 202 189 159 15 20 31 24 18 10 11 13 11 15 26 34 35 29 27 24 26 23 27 26 24 28
282 275 264 256 247 239 232 225 219 211 207 206 207 206 205 201 203 202 198 186 176 51 21 32 28 20 12 12 19 18 23 39 43 42 31 22 31 26 22 21 24 23 25
288 280 257 252 249 238 229 222 216 209 207 206 206 205 202 200 201 200 196 188 175 134 28 33 33 24 12 16 23 28 36 51 50 40 30 22 29 26 21 20 23 23 25
341 314 249 236 234 228 224 219 214 208 206 206 206 204 201 198 199 198 195 190 176 163 47 40 35 28 15 20 27 41 52 56 53 43 32 27 31 26 21 20 23 23 18
340 318 228 219 220 223 219 216 213 208 205 204 203 201 198 196 196 198 194 188 182 172 128 50 40 31 21 25 31 47 56 59 56 48 43 37 30 22 19 17 21 20 14
7 322 260 237 229 223 218 216 214 208 205 200 200 198 196 194 196 195 196 189 184 177 159 72 47 33 26 30 34 47 54 57 50 47 41 36 29 24 22 23 22 18 15
263 275 248 241 235 228 223 219 212 210 203 198 198 197 195 195 195 196 194 191 188 182 174 96 55 40 34 34 35 48 53 53 53 48 44 39 32 28 26 28 27 27 26
264 254 242 242 235 224 223 219 217 209 201 198 196 195 196 194 195 194 193 192 192 182 183 143 85 49 40 41 41 43 57 57 58 58 50 45 35 35 38 36 35 32 30
261 259 251 242 238 225 221 221 212 205 197 198 196 196 196 196 195 195 195 191 188 181 183 168 126 72 51 47 41 45 66 75 72 58 49 52 56 49 47 46 43 40 36
265 263 252 241 232 222 225 219 210 200 197 196 196 197 196 195 196 194 189 189 191 189 187 181 157 107 64 58 50 53 56 71 83 68 70 61 55 53 49 45 45 40 34